Tracking 19634 objects as of 21-May-2019
HD Live streaming from Space Station
objects crossing your sky now

AUREOLE 2

Track AUREOLE 2 now!
10-day predictions
AUREOLE 2 is classified as:


NORAD ID: 7003
Int'l Code: 1973-107A
Perigee: 372.8 km
Apogee: 915.4 km
Inclination: 73.9 °
Period: 97.5 minutes
Semi major axis: 7015 km
RCS: 2.1042 m2 (large)
Launch date: December 26, 1973
Source: France (FR)
Launch site: PLESETSK MISSILE AND SPACE COMPLEX (PKMTR)
aabbcc
Your satellite tracking list
Your tracking list is empty




NASA's NSSDC Master Catalog

Two Line Element Set (TLE):
1  7003U 73107A   19141.86499915  .00000599  00000-0  26099-4 0  9998
2  7003  73.9269  74.8602 0386734 261.9908  93.7226 14.77585534317235
Source of the keplerian elements: AFSPC